Hourly Data Report for October 19, 2016

All times are specified in Local Standard Time (LST). Add 1 hour to adjust for Daylight Saving Time where and when it is observed.

KUGAARUK CLIMATE
NUNAVUT

68°32'15.060" N
89°47'47.020" W
15.80 m
2303094
71407
NBB

Download Data

Hourly Data (October 2016)
Hourly Data Report for October 19, 2016
Temp Definition
°C
Dew Point Temp Definition
°C
Rel Hum Definition
%
Wind Dir Definition
10's deg

Wind Spd Definition
km/h
Visibility Definition
km
Stn Press Definition
kPa
Hmdx Definition


Wind Chill Definition


Weather Definition


TIME
00:00 -7.6 -9.5 87 21 28   101.68   -16 LegendNANA
01:00 -7.0 -8.9 86 21 28   101.63   -15 LegendNANA
02:00 -6.3 -8.1 87 22 32   101.55   -15 LegendNANA
03:00 -6.2 -7.9 88 21 29   101.49   -14 LegendNANA
04:00 -5.7 -7.1 90 21 27   101.43   -14 LegendNANA
05:00 -5.5 -7.1 89 22 35   101.35   -14 LegendNANA
06:00 -5.4 -6.8 89 21 32   101.28   -14 LegendNANA
07:00 -5.3 -6.6 91 21 40   101.16   -14 LegendNANA
08:00 -5.2 -6.4 91 20 42   101.06   -15 LegendNANA
09:00 -5.0 -6.3 90 20 41   100.96   -14 LegendNANA
10:00 -4.8 -6.4 89 20 42   100.83   -14 LegendNANA
11:00 -4.4 -5.7 91 20 43   100.69   -14 LegendNANA
12:00 -3.8 -4.6 94 21 44   100.56   -13 LegendNANA
13:00 -2.6 -3.4 95 22 43   100.44   -11 LegendNANA
14:00 -2.1 -2.9 94 23 37   100.39   -10 LegendNANA
15:00 -1.5 -2.5 93 24 30   100.40   -8 LegendNANA
16:00 -2.1 -3.9 88 27 32   100.45   -9 LegendNANA
17:00 -3.5 -5.0 89 27 27   100.50   -11 LegendNANA
18:00 -4.8 -6.7 87 26 28   100.55   -12 LegendNANA
19:00 -3.8 -5.4 89 26 31   100.51   -12 LegendNANA
20:00 -4.9 -6.8 87 28 33   100.53   -13 LegendNANA
21:00 -5.2 -6.4 91 28 38   100.56   -14 LegendNANA
22:00 -6.0 -7.6 88 29 32   100.60   -15 LegendNANA
23:00 -6.2 -7.8 88 29 29   100.67   -14 LegendNANA

Notes on Data Quality.

Legend

  • E = Estimated
  • M = Missing
  • NA = Not Available
  • ‡ = Partner data that is not subject to review by the National Climate Archives
Date modified: